Retour au catalogue

CZ-4C DEB

ActifLEO
NORAD 40114·DEBRIS·🇨🇳 China

Lancé Aug 9, 2014 depuis Jiuquan Satellite Launch Center

Loading…

Prochains Passages (prochaines 24 heures)

TLE

FraisSource: Space-Track

Époque: Sep 14, 2026, 04:15 UTC

1 40114U 14047F   26257.17738611  .00000098  00000-0  20018-3 0  9993
2 40114  63.3786 178.0082 0398083  15.5452 345.7393 13.44483372593879

Suivez CZ-4C DEB en temps réel avec AllMySat

Download on the App Store